OPS 4682 DEB, 14717

Orbit data source: Space-Track

OPS 4682 DEB, 14717 is space debris in LEO originally from a launch on Sat, 03 Apr 1965 UTC launched from the Air Force Western Test Range (AFWTR). Debris objects in space refer to the collection of defunct objects orbiting the Earth. Examples of debris include non-operational satellites, rocket bodies, and fragments generated from explosions, collisions, or faulty payload assembly.

Loading next visibility...
Identifier
14717, 1965-027Q
Orbit
LEO
Country
Flag of USUS
Related business
Manufacturer
Unknown
Mission
Spacecraft
Bus & Motor
Unknown
Mass
Unknown
Launch date (UTC)
1965-04-03 (61 years ago)
Launch vehicle
Unknown
Launch site
Air Force Western Test Range (AFWTR)
Object type
Payload
Rocket body
Debris
Shape & HBR
Unknown shape, 0.1 m
Radar Cross Section
Medium (>0.1 m² and <1 m²)

Expand to show TLE details & history
Last TLE update: 1 day ago

TLE from 1 day ago
0 OPS 4682 DEB
1 14717U 65027Q   26207.33694578  .00000643  00000-0  21852-2 0  9995
2 14717  90.2359 351.5471 0031477 345.3522  41.4893 12.97465025121163
Epoch: 2026-07-26T08:05Z
TLE epoch observation values (Epoch: 2026-07-26T08:05:12.115Z)
Latitude
27.11545°
Longitude
-73.9099°
Altitude
1,257.337 km
Speed
7.237 km/s
True Right ascension
23h 25m 42s
True Declination
26° 59' 07"
Sunlit
Object was in daylight at epoch
Visualization orbit readout
Latitude
Unknown
Longitude
Unknown
Altitude
Unknown
Speed
Unknown
Apparent Right ascension
Unknown
Apparent Declination
Unknown
Sunlit
N/A
Visualization observer readout
Local Sidereal Time
00:01:59
Azimuth
Unknown
Elevation
Unknown
Doppler factor
Unknown
Orbital elements
Apogee altitude
1,293.237 km
Perigee altitude
1,245.094 km
Semi-major axis
7,647.303 km
Eccentricity
0.00315
Inclination
90.2359°
RAAN
351.5471°
Arg. of periapsis
345.3522°
True anomaly
41.72896°
Mean anomaly
41.4893°
Eccentric anomaly
41.60906°
Mean motion
3.24549 °/min
Orbital period
110.92 mins
BSTAR
0.0021852
Loading maneuver chart data...
Computing Atmospheric mass density...
Loading historical data...
Loading historical data...
Loading historical data...
Loading historical data...
Loading historical data...
Loading historical data...
Loading historical data...

Documentation

Showing up to 5 results
|